Regional Weather Roundup
Issued by NWS Cleveland, OH

Home | Current Version | Previous Version | Graphics & Text | Print | Product List | Glossary On
Versions: 1 2 3 4 5 6 7 8 9 10 11 12 13 14 15 16 17 18 19 20 21 22 23 24 25 26 27 28 29 30 31 32 33 34 35 36 37 38 39 40 41 42 43 44 45 46 47 48 49 50
000
ASUS41 KCLE 011910
RWRCLE
OHIO REGIONAL WEATHER ROUNDUP
NATIONAL WEATHER SERVICE WILMINGTON, OH
300 PM EDT WED APR 01 2015

NOTE: "FAIR" INDICATES FEW OR NO CLOUDS BELOW 12,000 FEET WITH NO
SIGNIFICANT WEATHER AND/OR OBSTRUCTIONS TO VISIBILITY.

OHZ001>008-015>018-024>027-034-035-043-044-012000-
   NORTHWEST OHIO

CITY           SKY/WX    TMP DP  RH WIND       PRES   REMARKS
DEFIANCE       SUNNY     64  34  32 W9        30.07F
FINDLAY        SUNNY     64  36  35 W12       30.08F
TOLEDO EXPRESS SUNNY     61  37  41 VRB7      30.07F
TOLEDO EXEC    SUNNY     61  37  41 SW9       30.09F
LIMA           SUNNY     63  36  36 SW14      30.09F
$$

OHZ009>014-019>023-028>033-038-089-012000-
   NORTHEAST OHIO

CITY           SKY/WX    TMP DP  RH WIND       PRES   REMARKS
CLE-HOPKINS    PTSUNNY   56  35  45 W16       30.15F
CLE-LAKEFRONT  SUNNY     47  34  60 NE6       30.13F
CUY CO. ARPT   MOSUNNY   55  36  47 NW12      30.14F
LORAIN-ELYRIA  MOSUNNY   56  37  49 W15       30.12F
ASHTABULA      CLOUDY    48  33  56 VRB3      30.15F
AKRON-CANTON   PTSUNNY   55  31  39 SW9G17    30.14F
WOOSTER        MOSUNNY   56  37  49 W14       30.13F
MANSFIELD      SUNNY     58  36  43 SW9G20    30.12F
YOUNGSTOWN     PTSUNNY   51  31  46 W6        30.13F
$$

OHZ042-051>053-060>062-070>072-077>081-012000-
  SOUTHWEST OHIO

CITY           SKY/WX    TMP DP  RH WIND       PRES   REMARKS
CINC-COVINGTON MOSUNNY   64  31  28 VRB6      30.11F
CINC-LUNKEN    SUNNY     64  33  31 SE8       30.12F
HAMILTON       SUNNY     65  30  27 CALM      30.12F
DAYTON         SUNNY     64  32  30 E3        30.10F
WRIGHT-PAT AFB SUNNY     62  31  31 E7        30.10F
DAYTON GENERAL SUNNY     62  31  31 VRB3      30.10F
WILMINGTON     SUNNY     61  30  31 VRB5      30.12F
$$

OHZ036-037-039>041-045>050-054>059-063>069-073>076-082>088-012000-
  CENTRAL AND SOUTHEAST OHIO

CITY           SKY/WX    TMP DP  RH WIND       PRES   REMARKS
COLUMBUS       SUNNY     59  35  40 S7        30.13F
OSU AIRPORT    MOSUNNY   61  34  36 SW9       30.12F
BOLTON FIELD   NOT AVBL
RICKENBACK AFB SUNNY     60  34  38 NW5       30.13F
NEWARK         SUNNY     59  34  39 S3        30.13F
MARION         MOSUNNY   61  34  36 SW8       30.11F
LANCASTER      SUNNY     60  34  37 NW6       30.15F
ZANESVILLE     MOSUNNY   57  31  37 CALM      30.14F
NEW PHILLY     PTSUNNY   59  32  36 NW5       30.15F
$$


USA.gov is the U.S. government's official web portal to all federal, state and local government web resources and services.